Regional Weather Roundup
Issued by NWS Little Rock, AR

Home | Current Version | Previous Version | Text Only | Print | Product List | Glossary On
Versions: 1 2 3 4 5 6 7 8 9 10 11 12 13 14 15 16 17 18 19 20 21 22 23 24 25 26 27 28 29
000
ASUS44 KLZK 302305
RWRLZK

WEATHER ROUNDUP FOR ARKANSAS
NATIONAL WEATHER SERVICE LITTLE ROCK AR
600 PM CDT THU OCT 30 2014

NOTE: "FAIR" INDICATES FEW OR NO CLOUDS BELOW 12,000 FEET WITH NO
SIGNIFICANT WEATHER AND/OR OBSTRUCTIONS TO VISIBILITY.

ARZ001-003-010-029-310000-
NORTHWEST ARKANSAS

CITY           SKY/WX    TMP DP  RH WIND       PRES   REMARKS
FAYETTEVILLE   CLEAR     64  42  44 NW6G18    30.06R
FORT SMITH     CLEAR     72  42  34 NW7       30.03R
HARRISON       CLEAR     65  41  41 NW12G20   30.03R
BENTONVILLE    CLEAR     64  41  42 NW6       30.05S
ROGERS         CLEAR     65  41  41 NW7       30.05S
SILOAM SPGS    CLEAR     64  43  45 NW6       30.07S
HIGHFILL       CLEAR     65  43  44 W6        30.04F
SPRINGDALE     CLEAR     66  43  42 NW12      30.06F
$$

ARZ004-005-016-310000-
NORTH CENTRAL ARKANSAS

CITY           SKY/WX    TMP DP  RH WIND       PRES   REMARKS
BATESVILLE     PTCLDY    63  46  55 CALM      30.01S
FLIPPIN        CLEAR     68  43  40 NW10      30.00R
MTN HOME       PTCLDY    66  45  46 NW5       29.99R
$$

ARZ040-041-310000-
WEST CENTRAL ARKANSAS

CITY           SKY/WX    TMP DP  RH WIND       PRES   REMARKS
MENA           CLEAR     68  46  45 CALM      30.06S
MOUNT IDA      CLEAR     64  47  53 CALM      30.03S
$$

ARZ009-017-025-026-028-310000-
NORTHEAST ARKANSAS

CITY           SKY/WX    TMP DP  RH WIND       PRES   REMARKS
CORNING        FAIR      59  50  72 SE6       30.02S
JONESBORO      CLOUDY    65  47  52 S3        30.02S
NEWPORT        CLOUDY    65  48  53 VRB6      30.03S
WALNUT RIDGE   MOCLDY    64  46  52 S7        30.01R
BLYTHEVILLE    CLOUDY    63  45  51 CALM      30.03S
$$

ARZ022-023-033-042-044-310000-
CENTRAL ARKANSAS

CITY           SKY/WX    TMP DP  RH WIND       PRES   REMARKS
LITTLE ROCK    PTCLDY    65  46  50 SW7       30.03F
JACKSONVILLE   CLEAR     66  50  55 S5        30.03S
SEARCY         PTCLDY    64  49  57 CALM      30.04S
HOT SPRINGS    CLEAR     67  44  43 SW6       30.04F
RUSSELLVILLE   CLEAR     64  52  64 CALM      30.01F
$$

ARZ036-310000-
EAST ARKANSAS

CITY           SKY/WX    TMP DP  RH WIND       PRES   REMARKS
WEST MEMPHIS   CLOUDY    63  47  55 CALM      30.03S
$$

ARZ050-053-066-070-073-310000-
SOUTHWEST ARKANSAS

CITY           SKY/WX    TMP DP  RH WIND       PRES   REMARKS
ARKADELPHIA    FAIR      67  57  70 CALM      30.05S
CAMDEN         MOCLDY    68  48  49 CALM      30.05S
TEXARKANA      CLEAR     70  41  34 SW7       30.06S
DE QUEEN       CLEAR     68  48  48 W3        30.04S
$$

ARZ056-057-069-310000-
SOUTHEAST ARKANSAS

CITY           SKY/WX    TMP DP  RH WIND       PRES   REMARKS
PINE BLUFF     LGT RAIN  65  54  67 S5        30.05S
STUTTGART      CLOUDY    64  54  68 SW7       30.04R
MONTICELLO     PTCLDY    67  51  56 CALM      30.05F

$$





USA.gov is the U.S. government's official web portal to all federal, state and local government web resources and services.